Temp
-15 -15 -14 -14 -14 -14 -14 -13 -13 -13 -13 -13 -13 -12 -12 -13 -13 -13 -12 -13 -12 -11 -11 -10 -10 -9 -9 -9 -9 -9 -9 -8 -9 -8 -9 -8 -7 -7 -6 -6 -6 -6 -7 -7 -7 -8 -8 -5 -6 -6 -5 -5 -5 -5
-15 -15 -14 -14 -14 -14 -13 -13 -12 -13 -13 -13 -13 -13 -13 -13 -13 -13 -12 -12 -12 -12 -11 -10 -10 -9 -10 -10 -9 -9 -9 -8 -8 -8 -7 -8 -7 -7 -6 -6 -7 -7 -6 -6 -6 -6 -5 -5 -5 -5 -5 -6 -5 -6
-15 -14 -14 -14 -14 -13 -13 -12 -13 -13 -13 -13 -13 -13 -13 -13 -13 -13 -12 -12 -12 -12 -11 -10 -10 -10 -10 -9 -9 -9 -8 -8 -8 -8 -8 -7 -7 -8 -7 -7 -6 -6 -6 -6 -6 -6 -6 -6 -6 -5 -6 -6 -6 -6
-15 -14 -14 -13 -13 -13 -13 -13 -13 -13 -12 -12 -13 -13 -13 -13 -13 -12 -12 -12 -12 -12 -12 -10 -10 -9 -9 -8 -8 -8 -8 -9 -8 -8 -8 -8 -8 -8 -7 -6 -6 -6 -6 -6 -7 -7 -6 -6 -6 -6 -6 -6 -6 -6
-14 -13 -13 -13 -13 -13 -13 -13 -13 -12 -12 -12 -12 -12 -12 -12 -12 -12 -12 -12 -12 -11 -10 -10 -9 -9 -8 -8 -7 -8 -9 -8 -8 -8 -8 -8 -7 -7 -7 -7 -7 -7 -7 -7 -6 -6 -7 -6 -6 -6 -6 -6 -6 -7
-13 -13 -13 -12 -12 -12 -12 -12 -12 -12 -12 -12 -12 -12 -12 -12 -12 -12 -12 -12 -11 -10 -10 -10 -9 -9 -8 -8 -8 -8 -8 -9 -9 -8 -8 -8 -7 -7 -7 -8 -7 -7 -6 -7 -7 -7 -7 -7 -6 -6 -7 -7 -7 -7
-13 -12 -12 -12 -11 -11 -12 -12 -12 -12 -12 -12 -12 -12 -12 -12 -12 -11 -11 -10 -10 -10 -10 -10 -9 -9 -8 -8 -8 -9 -9 -9 -9 -8 -8 -8 -8 -7 -7 -7 -7 -7 -7 -7 -7 -7 -7 -7 -6 -7 -7 -7 -7 -7
-12 -11 -11 -11 -11 -10 -10 -11 -11 -12 -12 -12 -11 -11 -11 -11 -11 -11 -11 -10 -10 -10 -10 -11 -10 -9 -9 -9 -9 -9 -9 -9 -9 -8 -8 -8 -8 -8 -8 -7 -7 -7 -7 -7 -7 -7 -7 -7 -7 -7 -7 -7 -8 -8
-11 -11 -11 -11 -10 -9 -10 -11 -11 -11 -11 -11 -11 -11 -11 -10 -10 -11 -10 -10 -10 -10 -10 -10 -9 -10 -10 -10 -9 -9 -9 -9 -8 -8 -8 -8 -8 -8 -8 -7 -7 -7 -7 -7 -7 -7 -7 -7 -7 -7 -8 -8 -8 -8
-12 -11 -11 -11 -10 -10 -10 -10 -11 -11 -11 -11 -11 -11 -11 -11 -10 -10 -10 -10 -10 -10 -10 -10 -9 -9 -9 -9 -9 -9 -9 -9 -9 -8 -8 -8 -8 -8 -8 -8 -8 -8 -8 -7 -7 -7 -7 -7 -7 -8 -8 -9 -9 -9
-12 -11 -11 -10 -10 -10 -10 -10 -11 -11 -11 -11 -11 -11 -10 -10 -10 -10 -10 -10 -10 -10 -10 -10 -9 -9 -9 -9 -9 -9 -9 -8 -9 -9 -9 -9 -8 -8 -8 -8 -8 -8 -8 -8 -8 -8 -8 -7 -8 -8 -8 -9 -9 -9
-12 -12 -11 -11 -10 -10 -10 -10 -10 -11 -10 -10 -10 -10 -10 -10 -10 -10 -10 -10 -9 -9 -9 -9 -9 -10 -10 -9 -9 -9 -9 -9 -9 -9 -9 -8 -8 -8 -8 -8 -8 -8 -8 -8 -8 -8 -8 -8 -8 -9 -9 -9 -9 -10
-12 -12 -12 -12 -11 -11 -11 -11 -11 -11 -11 -10 -11 -10 -10 -10 -10 -10 -9 -9 -9 -9 -9 -9 -9 -9 -9 -9 -9 -8 -8 -9 -9 -9 -9 -8 -8 -8 -8 -8 -9 -8 -8 -8 -8 -9 -9 -9 -9 -10 -10 -10 -10 -10
-12 -12 -12 -12 -12 -12 -11 -11 -11 -11 -11 -10 -10 -10 -10 -9 -9 -9 -9 -8 -9 -9 -9 -9 -9 -9 -9 -9 -8 -9 -9 -9 -9 -9 -9 -8 -8 -8 -8 -8 -9 -9 -9 -9 -9 -10 -10 -10 -11 -11 -11 -11 -11 -11
-12 -12 -12 -12 -12 -11 -11 -11 -11 -11 -10 -11 -9 -9 -9 -9 -9 -9 -9 -9 -9 -9 -9 -10 -9 -9 -9 -8 -8 -9 -9 -9 -9 -9 -9 -8 -8 -8 -8 -9 -9 -9 -10 -10 -11 -11 -11 -11 -11 -11 -11 -12 -12 -12
-13 -13 -12 -12 -12 -12 -11 -11 -11 -11 -10 -9 -9 -9 -9 -9 -9 -9 -9 -9 -9 -10 -10 -10 -9 -9 -9 -9 -9 -9 -9 -9 -9 -8 -9 -8 -8 -9 -9 -9 -9 -9 -10 -11 -11 -11 -11 -11 -12 -12 -12 -12 -12 -12
-13 -13 -13 -12 -12 -12 -11 -11 -11 -11 -10 -10 -10 -10 -10 -10 -10 -11 -11 -10 -10 -10 -10 -9 -9 -9 -9 -9 -9 -9 -9 -9 -9 -9 -9 -9 -9 -9 -9 -9 -9 -10 -10 -11 -11 -11 -11 -12 -12 -12 -12 -13 -13 -13
-13 -13 -12 -12 -12 -12 -12 -12 -11 -10 -10 -10 -10 -11 -11 -11 -11 -10 -11 -10 -10 -10 -10 -9 -9 -9 -9 -9 -9 -9 -9 -9 -9 -9 -9 -9 -9 -9 -9 -10 -10 -10 -10 -11 -11 -11 -11 -12 -12 -12 -13 -13 -13 -13
-14 -13 -13 -12 -12 -12 -11 -11 -10 -11 -11 -11 -11 -11 -11 -11 -11 -10 -11 -10 -10 -10 -10 -10 -9 -9 -9 -9 -9 -9 -9 -9 -9 -9 -9 -9 -9 -9 -9 -10 -10 -10 -11 -11 -11 -12 -12 -12 -12 -13 -13 -13 -13 -13
-13 -13 -13 -13 -12 -12 -11 -11 -10 -11 -11 -11 -11 -11 -11 -11 -11 -11 -10 -10 -11 -11 -11 -10 -10 -10 -9 -9 -9 -9 -9 -9 -9 -9 -9 -9 -9 -9 -9 -10 -10 -10 -11 -11 -11 -12 -12 -12 -12 -13 -13 -13 -13 -13
-13 -12 -12 -12 -12 -12 -11 -11 -11 -11 -11 -11 -11 -11 -11 -12 -11 -11 -11 -11 -11 -10 -10 -10 -10 -10 -10 -10 -9 -9 -9 -9 -9 -9 -9 -9 -9 -9 -10 -10 -10 -11 -11 -11 -11 -11 -12 -12 -12 -12 -13 -13 -13 -13
-13 -13 -13 -12 -12 -12 -12 -11 -11 -11 -11 -11 -11 -11 -11 -12 -12 -11 -11 -11 -11 -10 -10 -10 -10 -10 -10 -10 -10 -10 -10 -9 -9 -9 -9 -9 -10 -10 -10 -10 -10 -10 -11 -11 -11 -11 -11 -12 -12 -12 -13 -13 -13 -13
-13 -13 -12 -12 -12 -12 -12 -12 -12 -11 -11 -11 -11 -12 -12 -12 -12 -11 -11 -11 -10 -10 -10 -10 -10 -10 -10 -10 -10 -10 -10 -10 -10 -10 -10 -10 -10 -10 -10 -10 -10 -10 -10 -11 -11 -11 -12 -12 -12 -12 -13 -13 -13 -14
-12 -12 -12 -12 -12 -12 -12 -12 -12 -12 -12 -12 -11 -11 -11 -11 -11 -11 -11 -10 -10 -10 -10 -10 -10 -10 -10 -10 -10 -10 -10 -10 -10 -10 -10 -10 -10 -10 -10 -10 -10 -10 -10 -11 -11 -11 -11 -12 -12 -13 -13 -13 -14 -14
-12 -12 -12 -12 -12 -12 -12 -12 -12 -12 -12 -11 -11 -11 -11 -10 -10 -10 -10 -10 -10 -10 -10 -10 -10 -10 -10 -10 -10 -10 -10 -10 -10 -10 -10 -10 -10 -10 -10 -10 -10 -10 -10 -10 -11 -11 -11 -12 -12 -13 -13 -14 -14 -15
-12 -12 -12 -12 -12 -13 -13 -12 -12 -12 -11 -11 -11 -11 -11 -11 -11 -10 -10 -10 -10 -10 -10 -10 -10 -10 -10 -10 -10 -10 -10 -10 -10 -10 -10 -10 -10 -10 -10 -10 -10 -10 -10 -10 -11 -11 -12 -12 -12 -13 -14 -14 -14 -15
-13 -13 -12 -12 -13 -13 -13 -13 -12 -12 -12 -12 -11 -11 -11 -11 -11 -10 -10 -10 -10 -10 -10 -10 -10 -10 -10 -10 -10 -10 -10 -11 -11 -11 -11 -11 -11 -11 -11 -11 -11 -11 -11 -11 -11 -12 -12 -13 -13 -14 -14 -14 -15 -15
-13 -13 -13 -13 -13 -13 -13 -13 -13 -13 -13 -12 -12 -12 -12 -11 -11 -11 -11 -11 -11 -11 -11 -11 -11 -11 -11 -11 -11 -11 -11 -11 -11 -11 -11 -11 -11 -11 -11 -11 -11 -11 -11 -12 -12 -12 -13 -13 -13 -14 -14 -15 -15 -16
-13 -13 -13 -13 -13 -13 -13 -14 -13 -13 -13 -13 -13 -12 -12 -12 -12 -11 -11 -11 -11 -12 -12 -12 -11 -11 -11 -11 -12 -12 -12 -12 -12 -12 -12 -11 -11 -12 -12 -12 -12 -12 -12 -12 -13 -13 -13 -14 -14 -14 -15 -15 -15 -16
-14 -14 -14 -14 -14 -14 -13 -13 -13 -13 -13 -13 -13 -13 -13 -12 -12 -12 -12 -12 -12 -12 -12 -12 -12 -12 -12 -12 -12 -12 -12 -12 -12 -12 -12 -12 -12 -12 -12 -12 -12 -12 -12 -13 -13 -13 -13 -14 -14 -15 -15 -15 -16 -16
-14 -14 -14 -14 -14 -14 -14 -14 -14 -14 -14 -14 -14 -13 -13 -13 -13 -12 -12 -13 -13 -13 -13 -13 -13 -13 -12 -12 -12 -12 -12 -12 -12 -12 -12 -12 -12 -12 -12 -12 -12 -12 -13 -13 -13 -13 -14 -14 -15 -15 -16 -16 -16 -17
-15 -15 -15 -15 -14 -14 -14 -14 -14 -14 -14 -14 -14 -14 -13 -13 -13 -13 -13 -13 -13 -13 -13 -13 -13 -13 -13 -12 -12 -12 -12 -12 -12 -12 -12 -12 -12 -12 -12 -13 -13 -13 -13 -13 -14 -14 -14 -15 -15 -16 -16 -17 -17 -18
-15 -15 -15 -15 -15 -14 -14 -15 -15 -15 -14 -14 -14 -14 -14 -14 -14 -13 -13 -13 -13 -13 -13 -13 -13 -13 -12 -12 -12 -12 -12 -12 -12 -12 -12 -12 -12 -13 -13 -13 -13 -14 -14 -14 -14 -15 -15 -16 -16 -17 -17 -17 -18 -18
Height
2820 2822 2825 2828 2830 2833 2836 2840 2844 2849 2854 2860 2866 2872 2878 2884 2889 2893 2901 2907 2912 2915 2919 2925 2930 2935 2938 2939 2941 2944 2948 2946 2950 2954 2956 2955 2950 2952 2956 2957 2959 2963 2967 2967 2971 2973 2971 2967 2969 2971 2971 2970 2972 2973
2818 2820 2823 2825 2827 2830 2832 2835 2838 2843 2847 2853 2859 2866 2872 2879 2885 2890 2895 2903 2909 2912 2917 2921 2924 2928 2930 2934 2937 2938 2941 2943 2944 2947 2948 2948 2947 2948 2949 2953 2956 2960 2957 2960 2963 2962 2963 2963 2965 2966 2967 2969 2969 2970
2816 2817 2819 2821 2822 2825 2828 2828 2832 2835 2839 2846 2853 2860 2867 2875 2881 2887 2894 2901 2905 2909 2914 2915 2917 2922 2923 2927 2932 2932 2934 2938 2939 2942 2943 2943 2942 2944 2943 2947 2950 2951 2953 2955 2958 2958 2959 2961 2963 2963 2965 2965 2966 2966
2812 2813 2814 2817 2820 2822 2823 2826 2829 2833 2836 2841 2847 2855 2863 2872 2879 2884 2891 2897 2903 2908 2910 2911 2913 2915 2918 2920 2922 2926 2930 2932 2935 2937 2937 2936 2938 2940 2940 2943 2945 2948 2949 2950 2952 2953 2955 2957 2959 2960 2961 2962 2963 2963
2807 2809 2810 2812 2814 2817 2820 2824 2827 2831 2835 2840 2846 2853 2861 2869 2877 2884 2890 2895 2899 2907 2907 2907 2908 2908 2908 2911 2913 2917 2923 2927 2929 2932 2933 2935 2938 2940 2940 2940 2940 2942 2944 2946 2947 2949 2951 2953 2954 2955 2957 2958 2960 2961
2805 2805 2805 2805 2808 2811 2815 2822 2826 2830 2836 2842 2847 2853 2861 2869 2876 2882 2888 2891 2896 2903 2906 2904 2903 2902 2900 2906 2910 2916 2916 2924 2926 2928 2932 2934 2936 2938 2937 2936 2938 2940 2941 2943 2944 2946 2947 2948 2950 2952 2953 2955 2956 2958
2800 2797 2795 2793 2794 2800 2810 2819 2827 2833 2838 2843 2849 2856 2863 2869 2875 2881 2887 2891 2895 2900 2902 2902 2901 2899 2901 2906 2909 2913 2918 2922 2927 2929 2930 2932 2934 2935 2934 2934 2935 2937 2938 2939 2941 2942 2943 2944 2946 2949 2950 2952 2954 2957
2798 2795 2793 2793 2792 2796 2807 2819 2828 2834 2840 2846 2852 2859 2865 2871 2878 2883 2887 2890 2894 2899 2900 2900 2899 2901 2903 2906 2910 2913 2919 2923 2926 2928 2929 2930 2932 2933 2932 2933 2934 2934 2936 2937 2939 2940 2941 2941 2943 2945 2948 2951 2953 2956
2801 2799 2799 2798 2796 2801 2813 2823 2830 2837 2844 2850 2856 2861 2866 2871 2878 2884 2889 2893 2896 2901 2900 2901 2902 2904 2906 2910 2913 2917 2919 2922 2925 2926 2928 2930 2929 2931 2931 2932 2932 2934 2935 2936 2937 2938 2939 2941 2942 2944 2947 2949 2952 2955
2809 2809 2808 2809 2811 2815 2822 2829 2835 2842 2848 2854 2861 2865 2870 2875 2881 2886 2892 2896 2898 2900 2901 2901 2902 2904 2909 2911 2914 2918 2920 2923 2924 2926 2927 2927 2928 2929 2930 2931 2931 2933 2933 2934 2935 2937 2938 2940 2941 2943 2946 2948 2951 2954
2818 2818 2820 2822 2824 2827 2832 2838 2843 2849 2854 2860 2864 2868 2873 2874 2881 2886 2891 2895 2898 2899 2900 2901 2904 2905 2910 2913 2915 2918 2920 2922 2922 2925 2926 2925 2925 2927 2928 2930 2931 2931 2932 2933 2934 2935 2936 2937 2939 2941 2943 2946 2949 2951
2828 2829 2830 2832 2835 2839 2844 2848 2852 2857 2861 2865 2868 2872 2875 2880 2885 2889 2892 2895 2896 2897 2898 2901 2904 2908 2911 2914 2917 2919 2919 2921 2921 2922 2924 2922 2923 2924 2926 2928 2929 2930 2931 2931 2931 2932 2933 2935 2936 2938 2941 2944 2946 2949
2836 2837 2840 2842 2844 2846 2849 2853 2857 2862 2867 2870 2875 2878 2881 2885 2887 2889 2890 2892 2893 2894 2897 2901 2905 2908 2912 2915 2917 2918 2918 2920 2921 2921 2921 2921 2921 2923 2925 2927 2928 2928 2929 2929 2929 2929 2930 2932 2933 2936 2939 2941 2944 2946
2843 2845 2846 2849 2852 2855 2858 2862 2864 2867 2872 2874 2878 2882 2884 2885 2887 2888 2890 2891 2894 2895 2899 2903 2906 2909 2912 2915 2915 2916 2918 2918 2919 2919 2919 2919 2920 2922 2924 2925 2926 2927 2927 2927 2928 2928 2929 2930 2932 2934 2936 2939 2941 2943
2850 2852 2853 2855 2858 2861 2864 2866 2870 2873 2875 2878 2881 2883 2884 2885 2886 2888 2890 2892 2895 2898 2902 2906 2909 2911 2912 2914 2915 2915 2916 2916 2916 2916 2917 2918 2920 2921 2923 2924 2925 2925 2926 2926 2927 2928 2928 2930 2931 2933 2935 2937 2939 2942
2856 2858 2860 2861 2864 2866 2869 2871 2875 2877 2879 2881 2883 2885 2885 2887 2888 2890 2892 2895 2898 2900 2904 2907 2909 2910 2912 2912 2913 2913 2914 2914 2915 2915 2917 2918 2919 2920 2921 2922 2923 2924 2925 2926 2927 2929 2929 2930 2931 2933 2934 2936 2938 2940
2862 2864 2866 2868 2869 2871 2873 2876 2878 2881 2883 2884 2885 2886 2888 2889 2891 2893 2895 2898 2900 2903 2905 2907 2908 2909 2910 2911 2912 2912 2912 2913 2914 2915 2916 2917 2918 2919 2920 2921 2922 2923 2925 2926 2927 2929 2930 2930 2931 2933 2934 2935 2936 2938
2867 2869 2871 2873 2875 2876 2878 2880 2883 2883 2884 2886 2888 2889 2891 2893 2895 2897 2899 2901 2903 2905 2907 2908 2908 2909 2909 2910 2910 2911 2911 2913 2914 2915 2916 2916 2917 2918 2919 2919 2921 2922 2923 2925 2927 2928 2929 2930 2931 2932 2933 2934 2935 2937
2872 2873 2875 2877 2879 2881 2883 2885 2886 2886 2888 2889 2890 2892 2894 2895 2897 2899 2900 2902 2904 2906 2908 2908 2909 2908 2909 2909 2910 2911 2912 2913 2914 2914 2915 2916 2917 2918 2918 2919 2920 2921 2922 2924 2925 2927 2928 2928 2929 2930 2931 2932 2934 2935
2876 2877 2879 2881 2882 2884 2885 2888 2888 2889 2890 2892 2893 2894 2895 2896 2898 2899 2901 2903 2904 2906 2907 2908 2908 2908 2908 2909 2910 2911 2912 2913 2914 2914 2915 2916 2917 2918 2918 2919 2919 2920 2921 2922 2923 2924 2925 2926 2927 2928 2929 2930 2931 2933
2880 2881 2882 2884 2885 2887 2889 2889 2890 2891 2891 2892 2893 2894 2895 2897 2898 2900 2901 2903 2905 2905 2906 2906 2907 2908 2908 2909 2910 2911 2912 2913 2914 2915 2916 2917 2917 2918 2918 2919 2919 2920 2920 2921 2921 2922 2922 2923 2924 2925 2926 2927 2929 2930
2884 2884 2885 2887 2888 2889 2890 2890 2891 2892 2893 2892 2893 2894 2895 2897 2899 2900 2902 2903 2904 2905 2905 2905 2906 2907 2907 2909 2910 2912 2913 2913 2914 2915 2917 2917 2918 2918 2918 2918 2918 2918 2918 2919 2919 2919 2920 2920 2921 2922 2923 2924 2925 2926
2887 2888 2888 2888 2889 2889 2890 2889 2890 2890 2891 2891 2892 2893 2895 2896 2898 2900 2901 2902 2903 2903 2903 2904 2905 2906 2907 2908 2910 2911 2912 2913 2914 2915 2916 2917 2918 2918 2918 2917 2916 2916 2917 2916 2916 2917 2917 2917 2918 2918 2919 2920 2922 2923
2889 2889 2889 2889 2889 2888 2888 2888 2889 2890 2890 2891 2892 2893 2895 2896 2898 2899 2900 2901 2901 2902 2903 2903 2904 2905 2906 2907 2909 2910 2911 2912 2913 2914 2915 2916 2916 2916 2916 2916 2915 2915 2914 2914 2914 2914 2914 2914 2914 2915 2916 2917 2919 2920
2892 2891 2890 2888 2888 2888 2888 2888 2889 2890 2890 2892 2893 2894 2895 2896 2897 2899 2899 2900 2900 2901 2902 2902 2903 2904 2904 2905 2906 2908 2909 2910 2911 2911 2912 2912 2913 2913 2913 2913 2912 2912 2911 2911 2911 2911 2911 2911 2912 2912 2913 2914 2916 2917
2890 2889 2889 2887 2887 2888 2888 2888 2889 2890 2891 2892 2893 2894 2895 2896 2897 2897 2897 2898 2899 2899 2900 2901 2901 2902 2902 2903 2904 2905 2906 2906 2906 2907 2908 2908 2908 2908 2909 2908 2908 2908 2908 2907 2907 2907 2908 2908 2909 2910 2910 2912 2913 2914
2888 2888 2887 2887 2887 2887 2887 2888 2889 2890 2890 2892 2893 2894 2895 2895 2895 2896 2896 2896 2897 2898 2898 2899 2899 2900 2900 2901 2901 2902 2903 2903 2903 2904 2903 2903 2903 2904 2904 2904 2904 2904 2903 2903 2903 2903 2904 2905 2905 2906 2908 2909 2910 2911
2887 2887 2887 2888 2886 2886 2886 2887 2887 2888 2889 2890 2891 2892 2893 2893 2894 2894 2894 2895 2896 2896 2897 2897 2898 2898 2898 2899 2899 2900 2900 2901 2901 2901 2901 2901 2901 2901 2901 2900 2900 2900 2900 2900 2900 2900 2901 2902 2902 2903 2905 2906 2907 2908
2885 2886 2886 2886 2886 2886 2885 2886 2886 2886 2887 2887 2888 2889 2890 2891 2891 2892 2892 2893 2894 2895 2895 2896 2897 2897 2897 2898 2898 2899 2899 2900 2900 2900 2899 2899 2899 2899 2899 2898 2898 2897 2897 2897 2898 2898 2898 2899 2900 2901 2901 2902 2904 2905
2884 2884 2884 2884 2884 2884 2884 2884 2884 2884 2884 2885 2885 2886 2887 2888 2889 2890 2890 2891 2892 2893 2894 2895 2895 2896 2897 2897 2898 2898 2899 2899 2899 2899 2899 2899 2898 2898 2897 2897 2896 2896 2895 2895 2896 2896 2896 2897 2897 2898 2899 2900 2900 2901
2880 2881 2881 2881 2880 2880 2880 2880 2880 2881 2881 2882 2882 2883 2884 2884 2885 2886 2887 2889 2890 2891 2892 2893 2894 2895 2895 2896 2896 2897 2897 2898 2897 2897 2897 2897 2896 2896 2896 2895 2894 2894 2894 2894 2894 2894 2894 2894 2895 2895 2896 2896 2897 2897
2877 2876 2876 2876 2876 2877 2877 2876 2877 2877 2878 2878 2879 2880 2880 2880 2881 2882 2884 2885 2887 2888 2889 2890 2891 2892 2893 2893 2894 2894 2894 2894 2894 2894 2893 2893 2893 2893 2892 2892 2891 2891 2891 2891 2891 2891 2891 2891 2891 2892 2892 2892 2893 2893
2874 2874 2873 2872 2872 2872 2873 2874 2873 2874 2874 2874 2875 2875 2875 2876 2877 2879 2880 2881 2882 2883 2885 2886 2887 2887 2888 2889 2889 2889 2889 2890 2889 2889 2889 2888 2888 2888 2888 2887 2887 2887 2887 2887 2887 2887 2887 2888 2888 2888 2889 2889 2889 2889
Wind_Speed
11 12 13 16 19 18 19 22 26 30 31 31 32 30 27 28 31 29 29 30 37 35 31 26 30 33 27 26 24 20 13 20 22 24 27 25 11 20 18 17 22 30 21 18 19 11 11 17 15 18 16 15 9 10
11 12 14 16 17 20 21 25 28 31 35 35 33 31 30 30 32 31 29 29 28 31 24 31 29 26 29 22 22 20 22 9 12 19 19 16 9 17 23 15 21 22 22 21 19 15 15 5 11 15 21 12 10 10
15 16 17 18 14 14 20 12 19 20 29 36 38 34 32 33 32 32 26 27 30 26 25 26 21 28 23 23 24 28 24 22 22 20 20 16 11 17 16 20 19 26 23 29 19 23 20 18 17 13 14 13 13 13
17 16 16 14 14 17 10 16 16 16 20 25 31 33 33 32 31 30 28 29 30 26 27 22 19 26 28 28 26 27 27 22 24 23 21 13 12 13 14 14 19 22 20 22 23 22 16 14 19 23 18 15 13 12
14 15 15 15 15 18 17 16 16 17 19 22 26 29 32 32 31 28 26 30 30 26 10 21 24 24 24 27 27 23 24 24 25 27 11 9 9 6 11 13 16 18 20 19 20 16 19 17 12 16 17 15 12 10
10 15 18 21 22 22 23 20 15 22 23 21 22 28 30 31 31 32 30 29 25 23 21 13 15 17 16 22 23 20 24 16 10 8 13 13 11 8 6 10 15 12 15 16 17 16 14 12 15 11 14 13 11 11
14 17 19 13 16 31 31 28 24 20 21 23 25 27 29 29 30 31 27 23 29 22 10 6 6 13 21 18 21 24 18 14 12 12 12 13 12 12 13 9 8 12 13 13 14 14 15 16 14 15 14 13 14 14
9 8 13 11 10 23 35 33 27 22 24 25 25 23 24 27 30 29 21 20 24 16 9 1 4 12 13 13 12 13 13 14 15 12 11 12 11 11 6 6 8 6 11 11 11 9 8 8 10 12 14 14 16 15
19 20 20 17 23 31 36 33 27 30 27 23 20 22 26 27 27 23 16 19 14 6 4 4 9 12 16 14 12 11 12 12 12 11 11 9 12 6 7 6 6 7 8 9 8 7 9 9 9 10 13 15 16 15
22 26 26 29 32 34 34 32 31 29 27 24 29 27 20 23 22 23 26 18 11 8 7 7 14 12 19 16 15 13 11 10 6 11 8 10 12 13 7 6 7 7 7 8 9 10 9 8 10 12 13 15 16 16
21 22 26 28 29 31 31 31 33 36 35 30 26 25 28 33 39 19 10 7 6 6 6 11 13 13 18 17 17 8 8 6 4 6 8 4 7 12 11 8 7 7 7 7 8 9 11 12 13 14 17 18 19 19
21 22 23 26 30 32 29 28 27 24 25 28 28 30 36 22 11 6 10 7 5 5 9 16 14 18 19 16 10 6 5 6 3 6 7 3 6 10 12 10 8 7 7 7 8 9 11 13 16 18 18 19 20 20
21 24 26 26 22 21 25 27 28 28 27 24 28 19 11 5 4 6 8 7 6 9 15 20 20 19 16 10 6 5 4 4 4 7 4 4 5 10 10 9 7 7 6 6 8 9 11 13 16 19 19 20 21 21
20 20 20 21 21 21 25 22 25 25 23 26 10 8 5 4 4 6 11 9 8 12 21 20 19 14 13 8 4 3 4 4 5 4 3 4 7 8 8 7 6 5 4 3 6 7 9 10 12 18 20 19 20 22
19 17 16 18 19 20 23 26 24 25 23 9 7 3 4 4 7 11 11 10 14 16 17 18 14 7 12 4 4 4 5 3 5 3 4 7 6 7 7 5 6 5 2 2 4 4 5 8 11 13 16 18 19 20
18 16 16 18 19 21 29 28 21 14 11 7 4 5 5 8 12 13 12 15 17 16 16 12 7 6 6 3 4 4 3 3 3 6 4 4 6 6 5 3 5 6 5 5 5 4 3 5 8 10 11 13 15 17
18 17 16 15 12 12 28 20 14 9 5 4 6 7 9 12 12 12 16 19 19 16 15 6 5 5 5 4 4 4 4 3 5 4 4 4 4 3 3 5 6 8 8 8 8 6 5 6 7 7 8 8 11 14
13 12 16 13 12 14 13 10 6 4 7 9 9 12 12 12 10 13 14 16 16 15 13 3 2 4 3 3 5 4 5 4 3 3 3 3 2 2 5 6 7 10 11 10 9 8 7 7 7 7 8 7 8 11
9 10 17 13 18 13 11 9 7 9 10 10 14 15 12 10 11 9 11 12 10 9 8 5 2 3 4 1 3 4 5 5 3 3 3 4 3 2 3 5 6 8 10 11 11 10 9 9 9 10 10 9 8 8
9 10 11 10 17 11 4 5 7 6 7 8 9 13 12 9 10 12 12 10 8 7 8 5 4 5 4 3 4 5 5 5 4 4 4 4 4 4 5 5 5 6 7 8 9 9 9 9 10 10 10 11 11 10
9 12 11 11 9 10 9 4 3 1 2 4 4 4 7 13 11 10 10 10 8 8 8 9 8 4 5 5 6 5 5 5 5 4 3 3 4 4 4 5 5 6 6 7 8 9 9 9 10 10 11 11 12 14
8 7 11 12 8 5 6 7 8 7 5 5 8 8 8 16 14 12 11 9 7 6 6 6 8 4 7 7 7 7 7 6 5 4 4 3 2 2 2 2 3 5 6 7 8 9 11 12 13 13 14 14 15 17
5 6 6 3 2 3 4 7 8 9 6 6 7 8 9 12 14 12 10 11 11 6 5 6 8 7 8 10 10 9 7 6 5 4 4 4 2 2 3 4 4 5 6 6 7 8 9 10 12 14 15 15 15 15
2 2 2 2 2 3 5 5 5 6 6 9 8 6 8 8 9 9 9 7 6 5 4 4 6 9 8 11 12 11 10 9 8 8 9 9 9 8 7 7 7 7 6 7 8 8 9 9 10 12 12 13 14 15
3 3 3 4 3 4 6 6 6 5 8 8 7 6 7 7 7 6 6 6 6 6 6 6 6 7 9 10 12 13 13 13 13 13 14 14 14 13 12 12 11 9 9 9 10 10 10 9 10 10 11 11 12 14
3 2 3 3 3 5 6 8 6 5 7 7 6 5 7 5 5 3 7 6 6 6 5 6 7 8 9 9 9 10 10 11 13 15 16 17 17 16 14 14 13 12 12 11 11 11 10 10 10 11 11 12 13 14
4 3 2 2 3 4 6 9 9 9 9 7 8 7 5 4 5 6 6 7 6 6 5 5 6 7 8 9 10 10 10 10 10 10 10 11 12 12 13 13 13 13 12 12 11 11 11 10 10 10 11 13 13 14
5 5 3 1 1 3 4 6 9 9 10 9 10 9 6 6 6 6 8 7 6 5 5 5 5 4 4 4 4 5 5 6 6 7 8 8 9 9 10 10 11 11 10 10 10 10 10 10 10 10 11 13 14 14
7 7 5 4 3 3 4 7 7 8 9 10 11 13 9 10 8 8 7 8 7 8 7 6 5 4 4 4 3 2 1 1 2 2 3 4 5 5 5 6 7 7 7 8 9 9 9 9 10 11 12 13 14 14
10 10 10 9 9 10 10 8 9 10 9 10 13 13 13 13 11 9 8 8 8 9 8 7 6 6 5 4 3 2 1 1 1 3 4 5 6 6 6 6 6 6 6 6 7 7 8 9 9 10 11 12 13 12
12 13 14 14 13 12 11 11 11 12 11 10 10 12 13 13 15 15 13 12 10 8 9 10 9 8 6 5 5 4 4 5 6 6 8 9 10 10 9 9 8 7 7 7 8 8 9 10 10 11 12 12 13 13
9 11 16 18 16 11 11 12 12 12 14 15 14 13 13 13 14 15 16 16 15 13 12 11 11 11 11 11 10 11 11 12 12 12 12 12 12 12 11 11 11 11 10 10 10 10 11 11 12 12 13 13 13 14
11 10 9 9 12 14 12 11 13 15 15 15 14 16 16 15 14 13 13 13 14 14 14 15 15 15 15 14 14 14 14 14 15 15 15 16 16 15 14 14 14 13 13 12 12 12 12 12 12 13 13 14 14 14
Wind_Direction
228 216 215 221 222 228 225 225 221 216 211 208 207 210 215 215 213 219 218 215 222 231 230 235 233 233 238 228 245 255 249 232 230 223 230 239 226 207 216 212 206 204 195 205 218 215 258 248 231 221 241 242 250 236
218 221 225 228 228 241 243 245 233 228 222 214 208 207 207 209 210 218 216 209 215 220 228 231 230 226 248 237 243 247 242 231 227 220 215 222 257 194 211 202 215 213 215 210 213 233 235 234 247 248 241 244 247 254
227 233 238 240 232 251 249 230 219 224 218 216 213 208 202 205 209 216 213 205 209 219 226 231 239 233 236 236 244 244 245 235 243 248 242 229 206 203 196 215 227 226 225 232 236 243 244 243 240 255 250 241 250 271
235 240 224 216 228 228 218 205 203 208 207 202 200 199 198 202 207 211 203 199 202 214 228 238 245 241 240 234 247 245 240 234 237 245 222 202 210 195 215 228 229 237 237 234 236 242 243 247 247 248 252 242 259 259
228 223 223 231 237 229 222 213 217 185 179 181 190 193 195 196 197 199 198 195 196 199 234 252 252 261 252 242 245 230 208 217 230 234 211 191 209 236 242 234 233 233 236 241 250 263 258 251 267 242 237 239 250 231
226 237 241 241 234 218 214 203 195 162 177 176 177 184 183 184 189 190 202 207 203 208 226 240 231 251 218 191 217 200 184 170 177 207 226 235 244 246 261 232 234 229 244 247 251 254 252 249 241 229 235 238 223 206
267 275 266 248 224 205 198 191 178 165 165 167 166 172 174 178 182 185 205 211 198 189 209 191 176 116 155 162 168 155 154 166 199 219 230 240 243 244 275 228 233 242 245 243 246 256 251 241 244 237 227 217 204 194
80 88 121 115 145 168 180 176 171 167 157 158 161 163 175 183 191 200 197 187 162 167 177 235 147 131 134 140 133 140 168 188 202 212 224 226 230 255 242 262 243 247 223 230 244 244 236 208 215 215 213 207 203 195
78 109 94 92 116 142 155 153 159 155 155 162 165 160 172 177 173 175 183 182 188 156 154 208 187 163 161 158 160 154 158 170 181 201 209 209 217 215 235 249 224 219 216 227 234 233 227 225 220 217 210 205 197 194
78 93 89 111 116 132 142 146 150 153 154 152 154 149 160 166 166 171 165 152 170 175 190 200 186 172 170 160 160 157 169 183 200 213 218 214 227 231 243 233 217 217 225 229 228 227 226 229 229 215 207 201 196 193
92 95 111 104 111 122 130 139 143 138 142 151 159 157 151 142 146 140 115 139 159 179 195 177 173 179 172 174 170 163 178 191 199 193 194 215 228 228 228 228 219 229 238 246 250 240 233 224 204 212 205 201 200 200
101 100 107 121 132 138 140 142 147 152 155 153 151 142 143 127 116 120 142 158 171 193 181 173 170 172 166 173 173 197 181 188 187 182 188 234 229 206 208 219 230 238 248 254 254 246 235 226 214 200 204 207 205 203
112 115 116 113 117 125 141 147 150 153 153 149 138 128 128 105 134 149 168 171 186 176 168 169 166 169 168 165 183 181 192 187 176 181 215 234 187 194 206 224 232 236 247 252 252 243 237 227 217 204 204 205 204 205
120 118 128 132 134 138 144 145 159 161 164 151 126 110 134 141 159 166 173 178 181 166 167 171 172 170 174 170 162 195 186 180 186 214 218 195 196 203 215 216 205 218 231 284 257 230 223 215 210 207 203 207 210 209
129 122 119 123 125 134 147 153 158 172 150 104 114 123 158 167 171 165 165 158 156 152 168 171 184 185 175 182 190 191 181 201 210 214 189 192 197 203 202 191 191 195 190 220 223 216 215 213 211 209 210 208 209 213
129 135 135 131 128 132 159 140 120 128 138 116 115 135 138 139 146 146 148 150 150 152 157 154 162 162 182 200 193 191 194 212 217 199 176 185 200 207 212 219 212 203 193 189 197 218 214 224 217 210 215 217 214 211
141 137 139 147 137 115 164 141 123 103 95 98 124 149 151 146 137 144 148 155 151 158 162 147 170 172 168 197 201 195 207 197 180 181 208 223 210 217 246 242 220 208 207 207 207 223 235 227 222 218 220 225 222 219
140 147 153 145 149 122 99 124 124 105 120 125 136 146 147 147 146 155 163 162 170 176 178 167 164 181 186 203 216 204 183 173 194 216 204 175 136 246 234 226 219 217 219 220 223 229 228 239 238 234 229 232 234 228
134 150 155 141 153 126 100 104 140 124 115 123 145 142 149 158 158 161 177 180 187 189 200 213 255 241 240 262 190 187 181 181 175 167 171 168 170 157 166 189 207 215 219 225 232 236 239 245 239 236 233 235 239 232
141 142 150 147 166 155 109 96 102 120 138 125 132 169 188 192 189 193 188 190 197 197 205 225 249 304 217 175 171 170 169 168 164 157 155 168 182 182 180 181 187 201 213 227 237 244 250 248 239 233 232 229 226 222
141 167 172 177 176 191 204 241 265 40 178 186 186 178 183 175 177 182 181 184 199 222 242 249 255 256 192 177 172 177 175 167 150 138 151 174 177 178 185 198 211 215 222 227 231 236 239 238 233 228 225 226 226 211
99 127 181 201 213 217 219 236 232 250 239 236 222 222 199 191 186 193 194 201 226 266 273 237 213 219 196 189 187 180 172 163 158 162 180 187 196 209 214 229 244 243 239 239 240 238 238 240 239 240 239 235 230 225
109 115 134 151 218 237 231 210 212 219 217 217 210 199 201 199 207 210 220 233 249 254 237 221 214 214 203 198 196 190 183 175 171 180 195 212 236 283 292 287 282 276 269 261 260 257 254 252 248 243 243 243 239 232
172 216 228 265 257 254 201 194 206 205 203 182 184 190 186 188 184 194 218 224 211 217 216 211 208 209 207 207 213 215 216 222 233 244 252 257 264 276 289 297 302 295 280 268 263 264 265 260 254 247 242 237 231 228
287 274 275 266 253 208 192 192 186 197 191 184 174 171 172 176 191 214 228 222 223 227 230 228 223 220 219 220 225 230 237 242 247 254 259 263 266 271 278 284 288 290 281 272 268 264 262 261 256 248 239 232 227 226
271 283 271 272 237 201 202 193 197 204 192 187 193 193 188 193 205 228 221 222 227 227 225 227 230 234 236 235 234 238 245 253 258 260 260 260 263 267 271 276 280 280 278 277 272 268 263 258 254 247 238 236 234 231
241 264 289 269 243 232 214 213 212 205 202 204 210 207 211 220 231 229 217 210 219 229 235 237 237 242 245 244 242 245 255 263 268 271 269 265 262 263 267 271 274 275 270 266 261 257 255 252 248 244 239 237 233 234
233 216 226 325 316 239 232 217 217 214 218 222 219 206 207 212 227 231 218 218 223 230 224 219 218 213 208 210 221 239 255 266 273 276 277 277 278 277 277 276 275 272 267 259 253 250 247 244 240 236 235 239 241 242
218 217 234 262 297 298 256 233 233 230 233 228 224 216 219 225 229 219 221 227 228 219 213 208 199 190 181 178 176 178 207 292 300 298 289 287 293 306 304 292 285 280 273 265 257 249 244 239 237 237 237 242 248 251
234 236 250 265 280 284 282 262 247 241 245 243 232 228 231 234 232 230 229 225 218 213 207 195 183 175 165 161 159 153 159 203 281 292 301 304 305 305 303 301 295 285 278 272 266 261 257 254 252 250 251 255 258 258
251 253 254 258 272 280 271 254 244 236 237 240 239 237 237 243 240 234 228 221 217 214 209 206 206 209 217 226 238 248 260 271 279 284 286 288 289 290 289 293 298 293 284 277 270 265 262 258 255 253 253 254 257 261
269 264 255 256 257 260 263 247 240 240 238 240 244 245 248 249 247 238 232 230 233 234 233 233 235 241 248 253 257 261 267 274 278 282 286 289 288 285 282 280 278 276 274 272 269 265 259 254 252 251 252 255 258 263
270 277 287 297 275 258 259 258 249 247 246 249 249 247 245 246 246 240 230 235 239 240 240 239 244 251 257 260 264 268 273 277 278 280 282 284 286 285 281 276 272 268 266 266 266 266 264 262 260 260 260 262 264 267